Fort Smith, AR

7:25 AM CST on November 23, 2017 (GMT -0600)
Fort Smith Regional

Weather History for KFSM - March, 2013

Change the Weather History Date:

Sunday, March 31, 2013

  Actual Average Record
Temperature  
Mean Temperature 63 °F 57 °F  
Max Temperature 73 °F 69 °F 94 °F (1974)
Min Temperature 53 °F 45 °F 24 °F (1987)
Degree Days  
Heating Degree Days 2 9  
Month to date heating degree days 469 387  
Since 1 July heating degree days 2792 3059  
Cooling Degree Days 0 1  
Month to date cooling degree days 2 11  
Year to date cooling degree days 3 12  
Growing Degree Days 14 (Base 50)    
Moisture  
Dew Point 52 °F    
Average Humidity 71    
Maximum Humidity 100    
Minimum Humidity 41    
Precipitation  
Precipitation 0.03 in 0.14 in 1.30 in (1968)
Month to date precipitation 3.42 3.85  
Year to date precipitation 11.85 9.42  
Sea Level Pressure  
Sea Level Pressure 29.91 in    
Wind  
Wind Speed 5 mph (North)    
Max Wind Speed 15 mph    
Max Gust Speed 20 mph    
Visibility 8 miles    
Events Fog , Rain , Thunderstorm    
T = Trace of Precipitation, MM = Missing Value Source: NWS Daily Summary

Daily Weather History Graph

Daily Weather History Graph

Search for Another Location

Airport or City:

Trip Planner

Search our weather history database for the weather conditions in past years. The results will help you decide how hot, cold, wet, or windy it might be!

Date:

Astronomy

Mar. 31, 2013 Rise Set
Actual Time 7:05 AM CDT 7:38 PM CDT
Civil Twilight 6:39 AM CDT 8:04 PM CDT
Nautical Twilight 6:09 AM CDT 8:34 PM CDT
Astronomical Twilight 5:38 AM CDT 9:04 PM CDT
Moon No Moon Rise 10:02 AM CDT (3/31)
Length of Visible Light 13h 24m
Length of Day
12h 33m
Waning Gibbous, 77% of the Moon is Illuminated
Mar 31
Waning Gibbous
Apr 2
Last Quarter
Apr 10
New
Apr 18
First Quarter
Apr 25
Full

Hourly Weather History & Observations

Time (CDT) Temp. Dew Point Humidity Pressure Visibility Wind Dir Wind Speed Gust Speed Precip Events Conditions
12:53 AM 60.1 °F 57.0 °F 90% 29.89 in 10.0 mi South 5.8 mph - 0.10 in Rain , Thunderstorm Light Rain
1:17 AM 57.2 °F 55.4 °F 94% 29.89 in 10.0 mi NNE 8.1 mph - 0.00 in   Clear
1:53 AM 59.0 °F 57.0 °F 93% 29.90 in 10.0 mi NNE 3.5 mph - 0.00 in   Mostly Cloudy
2:53 AM 59.0 °F 57.0 °F 93% 29.88 in 10.0 mi North 4.6 mph - N/A   Mostly Cloudy
3:53 AM 57.9 °F 55.9 °F 93% 29.86 in 7.0 mi East 3.5 mph - N/A   Scattered Clouds
4:36 AM 57.2 °F 55.4 °F 94% 29.86 in 2.0 mi Calm Calm - N/A   Partly Cloudy
4:40 AM 57.2 °F 55.4 °F 94% 29.86 in 1.5 mi Calm Calm - N/A   Partly Cloudy
4:53 AM 55.9 °F 54.0 °F 93% 29.86 in 0.8 mi NE 3.5 mph - N/A   Scattered Clouds
5:00 AM 55.4 °F 53.6 °F 94% 29.87 in 1.0 mi NNE 4.6 mph - N/A   Mist
5:07 AM 55.4 °F 53.6 °F 94% 29.87 in 1.0 mi NNE 3.5 mph - N/A   Scattered Clouds
5:22 AM 57.2 °F 55.4 °F 94% 29.87 in 0.8 mi Calm Calm - N/A   Scattered Clouds
5:29 AM 55.4 °F 53.6 °F 94% 29.87 in 1.2 mi Calm Calm - N/A   Mostly Cloudy
5:34 AM 57.2 °F 55.4 °F 94% 29.86 in 0.8 mi Calm Calm - N/A   Mostly Cloudy
5:44 AM 55.4 °F 53.6 °F 94% 29.86 in 0.2 mi NNE 5.8 mph - N/A Fog Fog
5:53 AM 55.9 °F 55.0 °F 97% 29.86 in 0.5 mi NNE 4.6 mph - N/A Fog Fog
5:59 AM 57.2 °F 55.4 °F 94% 29.86 in 2.5 mi NE 6.9 mph - N/A   Overcast
6:06 AM 57.2 °F 55.4 °F 94% 29.87 in 5.0 mi NNE 5.8 mph - N/A   Overcast
6:41 AM 57.2 °F 55.4 °F 94% 29.90 in 10.0 mi North 5.8 mph - N/A   Overcast
6:53 AM 57.9 °F 55.9 °F 93% 29.90 in 10.0 mi North 5.8 mph - N/A   Overcast
7:49 AM 60.8 °F 53.6 °F 77% 29.96 in 10.0 mi North 12.7 mph 18.4 mph 0.02 in Rain Light Rain
7:53 AM 60.1 °F 54.0 °F 80% 29.96 in 10.0 mi North 12.7 mph 18.4 mph 0.02 in Rain Light Rain
8:53 AM 57.9 °F 54.0 °F 87% 29.94 in 10.0 mi North 4.6 mph - 0.01 in   Partly Cloudy
9:53 AM 61.0 °F 52.0 °F 72% 29.94 in 10.0 mi NNW 3.5 mph - N/A   Clear
10:53 AM 63.0 °F 52.0 °F 67% 29.95 in 10.0 mi North 6.9 mph - N/A   Clear
11:53 AM 64.9 °F 51.1 °F 61% 29.96 in 10.0 mi North 6.9 mph - N/A   Clear
12:53 PM 66.9 °F 50.0 °F 54% 29.95 in 10.0 mi Variable 3.5 mph - N/A   Partly Cloudy
1:53 PM 68.0 °F 48.9 °F 50% 29.94 in 10.0 mi Variable 5.8 mph - N/A   Clear
2:53 PM 69.1 °F 48.0 °F 47% 29.93 in 10.0 mi Calm Calm - N/A   Clear
3:53 PM 71.1 °F 48.0 °F 44% 29.91 in 10.0 mi SE 5.8 mph - N/A   Clear
4:53 PM 73.0 °F 48.0 °F 41% 29.90 in 10.0 mi Calm Calm - N/A   Mostly Cloudy
5:53 PM 72.0 °F 48.0 °F 43% 29.89 in 10.0 mi WSW 11.5 mph - N/A   Clear
6:53 PM 70.0 °F 48.9 °F 47% 29.90 in 10.0 mi WSW 5.8 mph - N/A   Clear
7:53 PM 68.0 °F 44.1 °F 42% 29.91 in 10.0 mi NNW 6.9 mph - N/A   Clear
8:53 PM 64.9 °F 45.0 °F 48% 29.92 in 10.0 mi NNW 5.8 mph - N/A   Clear
9:53 PM 61.0 °F 46.9 °F 60% 29.95 in 10.0 mi Calm Calm - N/A   Clear
10:53 PM 61.0 °F 43.0 °F 52% 29.96 in 10.0 mi North 8.1 mph - N/A   Clear
11:53 PM 57.0 °F 43.0 °F 59% 29.97 in 10.0 mi Calm Calm - N/A   Clear